Regional Weather Roundup
Issued by NWS Burlington, VT

Current Version | Previous Version | Text Only | Print | Product List | Glossary On
Versions: 1 2 3 4 5 6 7 8 9 10 11 12 13 14 15 16 17 18 19 20 21 22 23 24 25 26 27 28 29 30 31 32 33 34 35 36 37 38 39 40 41 42 43 44 45 46 47 48 49 50
000
ASUS41 KBTV 050110
RWRBTV
VERMONT REGIONAL WEATHER ROUNDUP
NATIONAL WEATHER SERVICE BURLINGTON VT
900 PM EDT FRI SEP 04 2015

NOTE: "FAIR" INDICATES FEW OR NO CLOUDS BELOW 12,000 FEET WITH NO
SIGNIFICANT WEATHER AND/OR OBSTRUCTIONS TO VISIBILITY.

* THESE REPORTS ARE NOT UNDER NWS QUALITY CONTROL AND/OR DO NOT
  REPORT WEATHER SUCH AS PRECIPITATION AND FOG.

VTZ001>019-050200-
_____VERMONT_____


CITY           SKY/WX    TMP DP  RH WIND       PRES   REMARKS
BURLINGTON     CLEAR     72  58  61 N3        30.21R
MONTPELIER     CLEAR     63  58  83 CALM      30.28R
MORRISVILLE    CLEAR     63  56  78 CALM      30.25R
ST. JOHNSBURY*   N/A     64  58  80 MISG      30.22R
LYNDONVILLE*   FAIR      66  55  67 CALM      30.27R
MIDDLEBURY*    FAIR      67  59  76 N3        30.21R
RUTLAND*       CLEAR     66  46  48 SE7       30.23R
SPRINGFIELD    CLEAR     62  58  86 CALM      30.24R
HIGHGATE*      FAIR      67  53  61 NE5       30.22R
NEWPORT*       FAIR      61  55  78 SW3       30.26R
BENNINGTON     CLEAR     70  58  65 E6        30.22R

_____LAKE CHAMPLAIN_____


CITY           SKY/WX    TMP DP  RH WIND       PRES   REMARKS

$$

NYZ007-026>031-035-052-083-050200-
_____NORTHERN NEW YORK_____


CITY           SKY/WX    TMP DP  RH WIND       PRES   REMARKS
PLATTSBURGH    CLEAR     67  56  67 NW6       30.21R
SARANAC LAKE   CLEAR     63  54  72 NE7       30.24R
MASSENA        CLEAR     64  51  62 NE6       30.21R
OGDENSBURG*    CLEAR     63  55  77 E6        30.19R
POTSDAM*       CLEAR     64  59  82 E5        30.20R
WATERTOWN      CLEAR     64  57  78 NE6       30.16R
FT DRUM        CLEAR     69  58  68 NE8       30.17R
ALBANY         PTCLDY    74  60  61 SE5       30.19R
GLENS FALLS    MOCLDY    71  59  65 CALM      30.19R

$$
NHZ002-005-011-050200-
_____NEW HAMPSHIRE_____


CITY           SKY/WX    TMP DP  RH WIND       PRES   REMARKS
LEBANON        CLEAR     61  57  87 CALM      30.23R
KEENE          CLEAR     63  54  72 CALM      30.25R
MT WASHINGTON  CLEAR     48  41  76 N14         N/A
PLYMOUTH       FAIR      59  57  93 CALM      30.24R
WHITEFIELD     CLEAR     59  55  87 CALM      30.24R

$$

_____REGIONAL QUEBEC LOCATIONS_____


CITY           SKY/WX    TMP DP  RH WIND       PRES   REMARKS
MONTREAL       CLEAR     68  54  60 NE7       30.23R
QUEBEC CITY    CLEAR     59  55  88 CALM      30.25S
SHERBROOKE     CLEAR     61  52  72 E5        30.26R

_____REGIONAL ONTARIO LOCATIONS_____


CITY           SKY/WX    TMP DP  RH WIND       PRES   REMARKS
OTTAWA         PTCLDY    63  50  63 E7        30.22R

______KEY______
VSB  - VISIBILITY IN MILES
WCI  - WIND CHILL INDEX
HX   - HEAT INDEX
$$
NNNN


USA.gov is the U.S. government's official web portal to all federal, state and local government web resources and services.